FW1747 Weather Reports


Display with metric or nautical units.
time (UTC)temp
F
wind
direction
speed
MPH
gust
MPH
rain 1hr
in
rain 24hr
in
rain mn
in
humidity
%
barometer
mb
20260902033044 61 221 0.0 0.0 0.00 0.00 0.00 73 1012.4
20260902031546 61 221 0.0 0.0 0.00 0.00 0.00 73 1012.5
20260902030043 61 204 0.0 1.0 0.00 0.00 0.00 72 1012.4
20260902024552 61 219 0.0 5.0 0.00 0.00 0.00 71 1012.3
20260902023044 61 203 1.0 4.0 0.00 0.00 0.00 71 1012.2
20260902021549 61 202 1.0 10.0 0.00 0.00 0.00 71 1012.2
20260902020039 62 181 0.0 6.0 0.00 0.00 0.00 71 1012.3
20260902014542 61 198 0.0 5.0 0.00 0.00 0.00 71 1012.1
20260902013039 61 201 1.0 5.0 0.00 0.00 0.00 71 1012.1
20260902011538 61 206 0.0 11.0 0.00 0.00 0.00 72 1012.2
20260902010043 62 174 2.0 14.0 0.00 0.00 0.00 71 1012.1
20260902004537 63 202 1.0 9.0 0.00 0.00 0.00 69 1012.0
20260902003039 64 114 1.0 7.0 0.00 0.00 0.00 66 1011.8
20260902001536 65 215 1.0 8.0 0.00 0.00 0.00 63 1011.7
20260902000035 66 229 0.0 8.0 0.00 0.00 0.00 61 1011.5
20260901234534 66 49 0.0 7.0 0.00 0.00 0.00 62 1011.4
20260901233034 66 219 0.0 4.0 0.00 0.00 0.00 61 1011.5
20260901231534 66 194 1.0 6.0 0.00 0.00 0.00 60 1011.7
20260901230033 66 219 1.0 8.0 0.00 0.00 0.00 62 1011.7
20260901224532 67 203 0.0 5.0 0.00 0.00 0.00 62 1011.7
20260901223041 66 193 0.0 6.0 0.00 0.00 0.00 61 1011.7
20260901221531 67 236 0.0 2.0 0.00 0.00 0.00 62 1011.8
20260901220036 67 229 0.0 2.0 0.00 0.00 0.00 61 1011.7
20260901214534 66 191 0.0 7.0 0.00 0.00 0.00 62 1011.6
20260901213044 66 218 0.0 5.0 0.00 0.00 0.00 62 1011.6
20260901211529 66 211 0.0 5.0 0.00 0.00 0.00 62 1011.6
20260901210028 66 139 0.0 4.0 0.00 0.00 0.00 63 1011.7
20260901204528 66 188 1.0 8.0 0.00 0.00 0.00 63 1011.6
20260901203028 67 169 0.0 5.0 0.00 0.00 0.00 63 1011.7
20260901201527 67 186 0.0 5.0 0.00 0.00 0.00 63 1011.7
20260901200023 66 191 0.0 2.0 0.00 0.00 0.00 64 1011.7
20260901194522 65 198 0.0 5.0 0.00 0.00 0.00 66 1011.9
20260901193022 64 215 0.0 3.0 0.00 0.00 0.00 67 1012.1
20260901191522 65 162 1.0 4.0 0.00 0.00 0.00 67 1012.1
20260901190021 66 214 0.0 4.0 0.00 0.00 0.00 66 1012.2
20260901184523 66 87 0.0 1.0 0.00 0.00 0.00 67 1012.4
20260901183014 63 44 0.0 2.0 0.00 0.00 0.00 73 1012.4
20260901181513 62 234 0.0 3.0 0.00 0.00 0.00 75 1012.5
20260901180013 62 75 0.0 0.0 0.00 0.00 0.00 74 1012.6
20260901174512 63 211 0.0 2.0 0.00 0.00 0.00 75 1012.5
20260901173008 61 231 0.0 5.0 0.00 0.00 0.00 78 1012.5
20260901171512 61 226 1.0 6.0 0.00 0.00 0.00 77 1012.4
20260901170008 61 165 0.0 2.0 0.00 0.00 0.00 79 1012.5
20260901164507 61 213 0.0 2.0 0.00 0.00 0.00 79 1012.4
20260901163004 61 202 0.0 1.0 0.00 0.00 0.00 85 1012.4
20260901161502 59 204 0.0 0.0 0.00 0.00 0.00 84 1012.7
20260901160059 58 204 0.0 0.0 0.00 0.00 0.00 84 1012.7
20260901154559 58 204 0.0 0.0 0.00 0.00 0.00 84 1012.6
20260901153101 58 202 0.0 0.0 0.00 0.00 0.00 84 1012.6
20260901151557 58 199 0.0 1.0 0.00 0.00 0.00 83 1012.6
20260901144555 58 236 0.0 1.0 0.00 0.00 0.00 81 1012.4
20260901143059 58 231 0.0 1.0 0.00 0.00 0.00 79 1012.4
20260901141553 58 214 0.0 0.0 0.00 0.00 0.00 79 1012.3
20260901140053 58 214 0.0 0.0 0.00 0.00 0.00 78 1012.1
20260901134612 58 214 0.0 0.0 0.00 0.00 0.00 78 1012.1
20260901133055 58 214 0.0 0.0 0.00 0.00 0.00 78 1011.9
20260901131548 58 214 0.0 0.0 0.00 0.00 0.00 79 1012.0
20260901130047 58 214 0.0 0.0 0.00 0.00 0.00 79 1012.0
20260901124553 58 214 0.0 0.0 0.00 0.00 0.00 79 1011.9
20260901123046 57 214 0.0 0.0 0.00 0.00 0.00 79 1011.8
20260901121548 57 214 0.0 0.0 0.00 0.00 0.00 80 1012.0
20260901120044 57 214 0.0 0.0 0.00 0.00 0.00 80 1011.9
20260901114556 57 214 0.0 0.0 0.00 0.00 0.00 81 1011.9
20260901113042 57 214 0.0 0.0 0.00 0.00 0.00 81 1011.9
20260901111541 56 214 0.0 0.0 0.00 0.00 0.00 82 1011.6
20260901110041 56 194 0.0 0.0 0.00 0.00 0.00 82 1011.7
20260901104537 56 194 0.0 0.0 0.00 0.00 0.00 82 1011.6
20260901103037 55 194 0.0 0.0 0.00 0.00 0.00 82 1011.5
20260901101536 55 194 0.0 0.0 0.00 0.00 0.00 81 1011.4
20260901100040 55 194 0.0 0.0 0.00 0.00 0.00 81 1011.5
20260901094534 56 194 0.0 0.0 0.00 0.00 0.00 81 1011.4
20260901093034 56 68 0.0 0.0 0.00 0.00 0.00 80 1011.5
20260901091530 56 68 0.0 0.0 0.00 0.00 0.00 80 1011.4
20260901090131 56 68 0.0 0.0 0.00 0.00 0.00 80 1011.3
20260901084527 56 68 0.0 0.0 0.00 0.00 0.00 80 1011.2
20260901083026 56 68 0.0 0.0 0.00 0.00 0.00 79 1011.3
20260901081533 56 68 0.0 3.0 0.00 0.00 0.00 79 1011.2
20260901080026 57 103 0.0 1.0 0.00 0.00 0.00 79 1011.2
20260901074522 57 103 0.0 0.0 0.00 0.00 0.00 78 1011.2
20260901073021 57 103 0.0 0.0 0.00 0.00 0.00 77 1011.1
20260901071519 58 103 0.0 0.0 0.00 0.00 0.00 77 1011.0
20260901070016 58 103 0.0 0.0 0.00 0.00 0.00 76 1011.0
20260901064515 58 221 0.0 1.0 0.00 0.00 0.00 76 1010.9
20260901063026 59 222 0.0 3.0 0.00 0.00 0.00 75 1010.6
20260901061514 59 105 0.0 4.0 0.00 0.00 0.00 75 1010.5
20260901060014 59 185 1.0 10.0 0.00 0.00 0.00 74 1010.4
20260901054529 60 243 0.0 6.0 0.00 0.00 0.00 74 1010.4
20260901053013 60 197 3.0 10.0 0.00 0.00 0.00 73 1010.3
20260901051514 61 217 2.0 7.0 0.00 0.00 0.00 72 1010.2
20260901050011 62 149 0.0 2.0 0.00 0.00 0.00 71 1010.0
20260901044514 63 254 0.0 1.0 0.00 0.00 0.00 70 1009.9
20260901043012 63 207 0.0 3.0 0.00 0.00 0.00 68 1009.7
20260901041509 64 193 0.0 4.0 0.00 0.00 0.00 67 1009.4
20260901040008 66 204 3.0 6.0 0.00 0.00 0.00 64 1009.1
20260901034518 67 211 0.0 5.0 0.00 0.00 0.00 62 1008.7